User: anonymous   Login
Location: Unspecified
(0.0000°N, 0.0000°E)
Time: 05:42:59
(UTC+00:00)
Language:

STARLINK-5819 - Orbit

View from above orbital plane
View from above orbital plane
View from above satellite
View from above satellite

Ground track
Ground track

The orbit is defined by the following mean orbital elements,

1 55780U          26145.10531763 +.00000000 +00000-0 +23208-4 0 00001
2 55780  69.9998  31.6186 0002872 270.0476  90.0354 14.98332465    03
Epoch (UTC): 25 May 2026 02:31:39
Eccentricity: 0.0002872
inclination: 69.9998°
perigee height: 570 km
apogee height: 574 km
right ascension of ascending node: 31.6186°
argument of perigee: 270.0476°
revolutions per day: 14.98332465
mean anomaly at epoch: 90.0354°

The dashed part of the orbit path shows where the satellite is in the earth's shadow,  

DLR